[[{"header":{"parameterUnit":"m.s-1","parameterCategory":1,"la1":30.2991,"la2":30.254,"lo1":-89.0895,"lo2":-89.0444,"dy":0.0017,"dx":0.0017,"nx":28,"ny":28,"refTime":"2024-07-19T03:00:00:Z","depth":0,"parameterNumber":2,"parameterNumberName":"U-component_of_WINDS"},"data":[0,0,0,0,0,0,0,0,0,0,0,0,0,0,0,0,0,0,0,0,0,0,0,0,0,0,0,0,0,0,0,0,0,0,0,0,0,0,0,0,0,0,0,0,0,0,0,0,0,0,0,0,0,0,0,0,0,0,1.1181,1.1182,0,1.1287,1.1288,1.1289,1.1306,1.1305,1.1304,1.1303,1.1414,1.1417,1.1421,0,0,0,0,0,0,0,0,0,0,0,0,0,1.0997,1.1,1.1181,1.1182,1.1184,1.1286,1.1288,1.1289,1.1306,1.1305,1.1304,1.1303,1.1413,1.1417,1.1422,0,0,0,0,0,0,0,0,0,0,0,0,0,1.1087,1.1001,1.1181,1.1204,1.1208,1.1286,1.1288,1.129,1.1307,1.1305,1.1304,1.1302,1.1411,1.1417,1.1422,1.1485,0,0,1.144,1.1442,0,0,0,0,0,0,0,0,1.1082,1.1094,1.12,1.1203,1.1207,1.1282,1.1263,1.1355,1.1307,1.1269,1.1303,1.1302,1.1371,1.138,1.1403,1.149,1.1495,1.144,1.1444,1.1446,1.1448,0,0,0,0,0,0,0,1.1075,1.1089,1.1223,1.1201,1.1205,1.1211,1.1222,1.1281,1.1327,1.1272,1.1274,1.1286,1.1373,1.1397,1.1406,1.1497,1.144,1.1445,1.1449,1.1451,1.1642,1.1643,0,0,0,0,0,0,1.1065,1.1084,1.1219,1.1226,1.1139,1.1215,1.1228,1.1259,1.1326,1.1335,1.1287,1.1286,1.1388,1.1399,1.141,1.1488,1.1446,1.1451,1.1455,1.164,1.1642,1.1644,0,0,0,0,0,0,1.1061,1.1077,1.1215,1.1155,1.1173,1.122,1.1255,1.1262,1.1286,1.1337,1.1346,1.1303,1.1388,1.1402,1.1466,1.1492,1.1454,1.1459,1.1638,1.1641,1.1643,1.1644,0,0,0,0,0,0,1.1055,1.1075,1.1099,1.1156,1.1176,1.1269,1.1256,1.1265,1.1296,1.1296,1.1355,1.1363,1.1388,1.1458,1.1472,1.1499,1.1463,1.1636,1.1639,1.1642,1.1642,1.1646,1.165,0,0,0,0,0,1.1049,1.1095,1.11,1.1116,1.1207,1.127,1.1282,1.1309,1.1298,1.1322,1.1355,1.1361,1.1487,1.1464,1.148,1.1509,1.1634,1.1638,1.1642,1.164,1.1645,1.165,0,0,0,0,0,0,1.104,1.1103,1.1109,1.1175,1.1217,1.1273,1.1305,1.1313,1.136,1.1358,1.139,1.1403,1.1466,1.1495,1.1468,1.1574,1.156,1.1567,1.1553,1.1558,1.1562,1.1554,1.1468,0,0,0,0,0,1.1046,1.1091,1.1144,1.1198,1.1218,1.1258,1.1287,1.1303,1.1349,1.1367,1.1404,1.1449,1.1498,1.153,1.1578,1.1647,1.166,1.1675,1.1679,1.1682,1.1687,1.1726,1.1733,1.1656,1.1656,1.1656,0,0,1.1058,1.1098,1.1125,1.1197,1.1231,1.1279,1.1273,1.1323,1.1359,1.1375,1.1437,1.1467,1.1519,1.1585,1.1617,1.1611,1.1712,1.1687,1.1689,1.1693,1.173,1.1738,1.1744,1.1659,1.1658,1.1658,0,0,1.1104,1.1139,1.1188,1.1223,1.1275,1.1301,1.1313,1.1368,1.1388,1.1452,1.1465,1.1508,1.1593,1.1629,1.1659,1.1721,1.1728,1.1736,1.1756,1.1793,1.1799,1.1805,1.1827,1.1834,1.1741,1.1741,1.1741,0,1.1113,1.1184,1.1211,1.1261,1.1293,1.1309,1.1359,1.1392,1.1458,1.1479,1.1472,1.1579,1.1615,1.169,1.1705,1.1729,1.1744,1.1728,1.1796,1.1802,1.1808,1.1829,1.1837,1.1742,1.1742,1.1742,1.1742,0,1.1192,1.1241,1.1274,1.1337,1.1372,1.1422,1.1457,1.149,1.1505,1.1532,1.1597,1.1641,1.1699,1.1718,1.1733,1.1796,1.1791,1.179,1.1776,1.1815,1.1835,1.1844,1.1742,1.1742,1.1742,1.1742,0,0,1.1235,1.1313,1.1324,1.1353,1.1413,1.1452,1.1503,1.1559,1.1586,1.1632,1.1675,1.1747,1.1746,1.178,1.1799,1.1832,1.1878,1.1827,1.1828,1.1834,1.1951,1.195,1.1959,1.1884,1.1885,1.1887,1.1946,0,1.1288,1.1378,1.1404,1.148,1.1526,1.1544,1.1588,1.163,1.1658,1.1701,1.1732,1.1782,1.1778,1.1798,1.1831,1.1865,1.1901,1.1861,1.1925,1.1927,1.191,1.197,1.197,1.2024,1.1954,1.1956,1.1957,0,1.1361,1.1407,1.1488,1.1542,1.1563,1.1602,1.1656,1.1697,1.1746,1.1764,1.1801,1.1818,1.1873,1.1857,1.1933,1.1905,1.1933,1.1954,1.1956,1.1962,1.1943,1.1977,1.2041,1.2049,1.197,1.1969,1.1968,0,1.1383,1.1466,1.1525,1.1549,1.1614,1.1642,1.167,1.1717,1.175,1.1797,1.1818,1.1872,1.1901,1.1943,1.1974,1.1959,1.2047,1.2034,1.2064,1.2063,1.2081,1.2079,1.2149,1.21,1.21,1.21,1.21,0,1.1439,1.1487,1.1536,1.1572,1.1627,1.1658,1.1712,1.1742,1.1784,1.1826,1.1846,1.1885,1.1924,1.197,1.1995,1.2054,1.2067,1.2083,1.2089,1.2081,1.2079,1.2099,1.2096,1.2102,1.2102,1.2101,1.2101,0,1.1473,1.1507,1.1572,1.1629,1.1644,1.1682,1.1731,1.1768,1.1796,1.185,1.1865,1.191,1.1964,1.1999,1.2069,1.2086,1.2151,1.2156,1.2134,1.2136,1.2164,1.2161,1.2249,1.2263,1.2205,1.2205,1.2206,0,1.1505,1.1543,1.1604,1.1634,1.1662,1.171,1.1743,1.1776,1.1809,1.1868,1.1897,1.1953,1.1999,1.2086,1.2125,1.2179,1.2185,1.2213,1.2193,1.2184,1.2185,1.2182,1.2186,1.2215,1.2216,1.2216,1.2217,0,1.156,1.1575,1.1621,1.1674,1.1713,1.1756,1.1799,1.1823,1.1863,1.19,1.1956,1.1992,1.2063,1.2118,1.2176,1.2206,1.2218,1.2223,1.2232,1.2224,1.2209,1.2217,1.2141,1.222,1.222,1.2219,1.2219,1.2219,1.1594,1.1628,1.1676,1.1727,1.1764,1.1804,1.1841,1.1874,1.1921,1.198,1.1998,1.2056,1.2105,1.2183,1.2215,1.2261,1.2258,1.2272,1.2276,1.2278,1.2278,1.2202,1.2272,1.2272,1.2272,1.2272,1.2272,0,1.1648,1.1681,1.1728,1.1787,1.1828,1.1836,1.1885,1.1918,1.1969,1.2013,1.2058,1.2123,1.2177,1.2221,1.2276,1.2305,1.2312,1.2319,1.2317,1.2323,1.2278,1.2264,1.2312,1.2312,1.2312,1.2312,1.2312,1.2312,1.1682,1.174,1.1761,1.1838,1.1871,1.1927,1.1954,1.1992,1.2027,1.2098,1.2143,1.2171,1.2216,1.2275,1.2325,1.2337,1.2356,1.2362,1.2374,1.2331,1.2327,1.2322,1.2309,1.2366,1.2366,1.2416,1.2416,1.2416]},{"header":{"parameterUnit":"m.s-1","parameterCategory":1,"la1":30.2991,"la2":30.254,"lo1":-89.0895,"lo2":-89.0444,"dy":0.0017,"dx":0.0017,"nx":28,"ny":28,"refTime":"2024-07-19T03:00:00:Z","depth":0,"parameterNumber":3,"parameterNumberName":"V-component_of_WINDS"},"data":[0,0,0,0,0,0,0,0,0,0,0,0,0,0,0,0,0,0,0,0,0,0,0,0,0,0,0,0,0,0,0,0,0,0,0,0,0,0,0,0,0,0,0,0,0,0,0,0,0,0,0,0,0,0,0,0,0,0,-0.8532,-0.853,0,-0.8347,-0.8345,-0.8343,-0.8226,-0.8225,-0.8224,-0.8224,-0.8032,-0.8027,-0.8023,0,0,0,0,0,0,0,0,0,0,0,0,0,-0.8782,-0.8778,-0.8532,-0.853,-0.8527,-0.8347,-0.8345,-0.8342,-0.8226,-0.8225,-0.8224,-0.8223,-0.8033,-0.8028,-0.8022,0,0,0,0,0,0,0,0,0,0,0,0,0,-0.8643,-0.8776,-0.8532,-0.8448,-0.8438,-0.8348,-0.8344,-0.8341,-0.8226,-0.8225,-0.8224,-0.8223,-0.8035,-0.8028,-0.8022,-0.8,0,0,-0.8001,-0.7998,0,0,0,0,0,0,0,0,-0.8651,-0.8634,-0.8462,-0.8453,-0.8443,-0.8308,-0.8362,-0.8227,-0.8226,-0.8307,-0.8224,-0.8223,-0.8124,-0.811,-0.8078,-0.7991,-0.7983,-0.8,-0.7996,-0.7993,-0.7992,0,0,0,0,0,0,0,-0.866,-0.8641,-0.8458,-0.846,-0.8448,-0.8418,-0.8397,-0.8336,-0.8223,-0.8299,-0.8291,-0.827,-0.8119,-0.8084,-0.8072,-0.798,-0.8001,-0.7995,-0.799,-0.7988,-0.7866,-0.7867,0,0,0,0,0,0,-0.8684,-0.865,-0.8464,-0.8453,-0.8546,-0.8414,-0.8391,-0.8352,-0.8224,-0.8203,-0.8271,-0.8266,-0.8096,-0.808,-0.8065,-0.8031,-0.7993,-0.7987,-0.7983,-0.7865,-0.7866,-0.7867,0,0,0,0,0,0,-0.869,-0.8668,-0.8472,-0.8549,-0.8521,-0.8411,-0.8369,-0.8349,-0.8315,-0.8202,-0.8181,-0.8257,-0.8095,-0.8074,-0.8017,-0.8023,-0.7984,-0.7978,-0.7864,-0.7865,-0.7867,-0.7964,0,0,0,0,0,0,-0.8697,-0.8671,-0.8663,-0.855,-0.8518,-0.8428,-0.8369,-0.8346,-0.8304,-0.8295,-0.8184,-0.8164,-0.8093,-0.8028,-0.8011,-0.8013,-0.7973,-0.7863,-0.7865,-0.7866,-0.796,-0.7968,-0.7976,0,0,0,0,0,-0.8707,-0.8697,-0.8663,-0.8641,-0.8505,-0.8429,-0.8411,-0.8329,-0.8305,-0.8295,-0.8222,-0.8168,-0.8025,-0.8023,-0.8002,-0.8003,-0.7862,-0.7864,-0.7866,-0.7956,-0.7967,-0.7975,0,0,0,0,0,0,-0.8812,-0.868,-0.8641,-0.8594,-0.8524,-0.8409,-0.8394,-0.8343,-0.8277,-0.8271,-0.8172,-0.8148,-0.8101,-0.8045,-0.8046,-0.7975,-0.7937,-0.7935,-0.8013,-0.8022,-0.803,-0.8044,-0.7967,0,0,0,0,0,-0.883,-0.878,-0.8667,-0.8637,-0.8604,-0.8506,-0.8469,-0.8413,-0.8335,-0.8305,-0.8228,-0.8154,-0.8092,-0.8054,-0.7991,-0.7951,-0.7925,-0.7941,-0.7949,-0.7956,-0.7956,-0.793,-0.7936,-0.7873,-0.7873,-0.7873,0,0,-0.8866,-0.8788,-0.8762,-0.8656,-0.8595,-0.8545,-0.8481,-0.843,-0.8392,-0.8296,-0.8238,-0.818,-0.809,-0.8042,-0.8017,-0.7995,-0.7967,-0.7959,-0.7965,-0.796,-0.7933,-0.7939,-0.7945,-0.7874,-0.7874,-0.7874,0,0,-0.8906,-0.8842,-0.881,-0.8751,-0.8659,-0.8594,-0.8587,-0.848,-0.8437,-0.8378,-0.8305,-0.8257,-0.8153,-0.8093,-0.8049,-0.8067,-0.8014,-0.8049,-0.8091,-0.8068,-0.8073,-0.8077,-0.8084,-0.8087,-0.8049,-0.8049,-0.8049,0,-0.8962,-0.8885,-0.88,-0.8754,-0.871,-0.8622,-0.8588,-0.8534,-0.8426,-0.8397,-0.8374,-0.8242,-0.8176,-0.8113,-0.8117,-0.8084,-0.8072,-0.8062,-0.8079,-0.8082,-0.8085,-0.809,-0.8093,-0.8054,-0.8054,-0.8053,-0.8053,0,-0.8959,-0.8907,-0.8892,-0.8792,-0.8745,-0.8706,-0.8614,-0.8577,-0.8525,-0.8462,-0.8402,-0.8319,-0.8238,-0.8219,-0.8167,-0.8148,-0.8137,-0.8098,-0.8058,-0.8097,-0.8101,-0.8102,-0.8061,-0.8059,-0.8058,-0.8057,0,0,-0.9061,-0.8915,-0.8911,-0.8864,-0.8757,-0.8715,-0.8671,-0.8593,-0.8563,-0.8492,-0.8453,-0.8367,-0.8331,-0.8281,-0.8221,-0.82,-0.8221,-0.8163,-0.816,-0.8177,-0.8195,-0.8225,-0.8229,-0.8185,-0.8185,-0.8185,-0.8202,0,-0.9086,-0.9005,-0.8927,-0.8873,-0.8824,-0.874,-0.8702,-0.8632,-0.8572,-0.852,-0.8453,-0.8394,-0.835,-0.832,-0.8295,-0.8224,-0.8223,-0.8221,-0.8147,-0.8145,-0.8173,-0.823,-0.8262,-0.8283,-0.8203,-0.8203,-0.8203,0,-0.9104,-0.9038,-0.8981,-0.8879,-0.8855,-0.8823,-0.8745,-0.8697,-0.8615,-0.8573,-0.8518,-0.8455,-0.8404,-0.837,-0.8298,-0.8299,-0.8264,-0.8224,-0.8223,-0.8213,-0.8177,-0.8223,-0.8287,-0.8291,-0.8204,-0.8204,-0.8204,0,-0.9185,-0.9081,-0.9033,-0.8996,-0.8876,-0.8856,-0.8804,-0.8722,-0.868,-0.8612,-0.8584,-0.851,-0.847,-0.8414,-0.8332,-0.8315,-0.8269,-0.8228,-0.8232,-0.8235,-0.8227,-0.8229,-0.8287,-0.8204,-0.8204,-0.8204,-0.8204,0,-0.9221,-0.9189,-0.9068,-0.9039,-0.9001,-0.8911,-0.8875,-0.8816,-0.8743,-0.87,-0.8622,-0.8583,-0.8478,-0.8426,-0.8362,-0.8313,-0.8295,-0.8259,-0.8242,-0.8266,-0.8271,-0.8242,-0.8239,-0.8205,-0.8205,-0.8204,-0.8204,0,-0.9305,-0.9223,-0.9165,-0.9057,-0.9029,-0.9005,-0.8912,-0.8879,-0.8815,-0.8762,-0.8744,-0.8643,-0.8578,-0.8491,-0.8399,-0.8356,-0.8314,-0.8288,-0.8343,-0.8333,-0.8342,-0.8343,-0.8385,-0.8385,-0.8303,-0.8304,-0.8304,0,-0.9334,-0.9308,-0.9197,-0.9164,-0.9115,-0.9062,-0.9019,-0.8929,-0.8888,-0.8793,-0.8773,-0.8702,-0.8641,-0.8541,-0.8458,-0.8387,-0.8359,-0.8378,-0.8347,-0.8372,-0.8359,-0.8362,-0.8359,-0.8386,-0.8388,-0.8389,-0.8389,0,-0.9394,-0.9355,-0.9298,-0.9226,-0.9178,-0.9117,-0.9052,-0.9028,-0.8925,-0.8882,-0.8816,-0.8768,-0.8674,-0.8605,-0.8523,-0.8469,-0.8412,-0.84,-0.8397,-0.8421,-0.8454,-0.8437,-0.8364,-0.8399,-0.8398,-0.8398,-0.8397,-0.8397,-0.9451,-0.9425,-0.9343,-0.9282,-0.9224,-0.9165,-0.913,-0.9062,-0.9005,-0.8923,-0.8873,-0.8809,-0.8727,-0.8611,-0.8559,-0.8507,-0.8484,-0.848,-0.8479,-0.848,-0.8488,-0.8463,-0.8491,-0.8491,-0.849,-0.849,-0.849,0,-0.9509,-0.9452,-0.9397,-0.9309,-0.9261,-0.9213,-0.9138,-0.9101,-0.9046,-0.8975,-0.8917,-0.884,-0.8772,-0.8685,-0.8611,-0.8585,-0.8557,-0.8569,-0.857,-0.8559,-0.8512,-0.8522,-0.8593,-0.8593,-0.8593,-0.8593,-0.8593,-0.8593,-0.9533,-0.9485,-0.9436,-0.9359,-0.9301,-0.9239,-0.9201,-0.9146,-0.9089,-0.9008,-0.8952,-0.8896,-0.8818,-0.8737,-0.8673,-0.8648,-0.8625,-0.8645,-0.8613,-0.8571,-0.8562,-0.8553,-0.8562,-0.864,-0.864,-0.8664,-0.8664,-0.8664]}]]